arxmliv
arxmliv build tool
 
KWARC group
LaTeXML
About
   
 

Detailed info

Back to Homepage

List of missing_macros

No. Date Filename num_warningnum_errornum_xmargok_xmargnum_xmathok_xmathMissing macros
162001 2013-02-26 06:58:09 /0006/physics.0006045 230000[{Verbatim}]; 1 missing file[fancyvrb.sty].
162002 2013-02-26 06:57:24 /0006/physics.0006017 520000[\epsfig].
162003 2013-02-26 06:56:47 /0006/physics.0006004 1920000[\psfig]; 1 missing file[psfig.tex].
162004 2013-02-26 06:56:40 /0006/physics.0006023 030000[\reference, {references}]; 1 missing file[references.sty].
162005 2013-02-26 06:56:34 /0006/physics.0006007 1430000[{sidewaysfigure}].
162006 2013-02-26 06:56:14 /0006/physics.0006011 1210000[\a].
162007 2013-02-26 06:55:56 /0006/nucl-th.0006083 170000[\epsfbox, \abstracts, \epsfxsize]; 1 missing file[ws.sty].
162008 2013-02-26 06:53:12 /0006/nucl-th.0006054 020000[\PACS]; 1 missing file[size11.clo.sty].
162009 2013-02-26 06:52:54 /0006/nucl-th.0006043 330000[\@affiliation].
162010 2013-02-26 06:51:49 /0006/nucl-th.0006033 0120000[\twerm, \topage, {notes}, \volnumber, \epsfbox, \recrevdate, \frompage, \authors, \edyear, \epsfxsize]; 1 missing file[hip-artc.sty].
162011 2013-02-26 06:51:09 /0006/nucl-th.0006040 410000[\institute]; 1 missing file[FBSsuppl.cls].
162012 2013-02-26 06:50:38 /0006/nucl-th.0006028 440000[\psfig]; 1 missing file[psfig].
162013 2013-02-26 06:49:13 /0006/nlin.0006043 210000[\bezier].
162014 2013-02-26 06:49:10 /0006/nucl-ex.0006010 1140000[\epsfbox, \varnothing, \epsfig, \epsfxsize].
162015 2013-02-26 06:49:03 /0006/nlin.0006026 19810000[\theappendix].
162016 2013-02-26 06:48:51 /0006/nlin.0006051 780000[\extrasenglish, \dateenglish, \captionsenglish].
162017 2013-02-26 06:47:51 /0006/nlin.0006029 14310000[\dTo, Align, \diagramstyle, \rdTo, \ldTo, {diagram}].
162018 2013-02-26 06:47:51 /0006/nlin.0006042 040000[\psbox]; 1 missing file[epsbox.sty].
162019 2013-02-26 06:47:39 /0006/nlin.0006031 580000[\blacksquare, \square, \affiliation, \pagerange, \volume, \pubyear]; 2 missing files[AMSsymb.sty, jfm.cls].
162020 2013-02-26 06:47:13 /0006/math.0006226 281250000[\Lin, {xy}, {lemma}, {bems}, \dif, \adR, \vcrossneg, \Rdam, \contr, \id, \vcross, {thm}, \listfiles, {folg}, {bew}, {satz}, \Rda, \cont, \Mor, {bem}, {defin}, \vcap]; 1 missing file[xy.sty].
162021 2013-02-26 06:47:04 /0006/math.0006237 78130000[Align, \xymatrix, \ar]; 1 missing file[xy.sty].
162022 2013-02-26 06:46:55 /0006/math.0006233 32540000[{keywords}, \PARstart, {biography}, {proof}]; 1 missing file[IEEEtran.cls].
162023 2013-02-26 06:46:25 /0006/nlin.0006005 19500000[\rhead, Align, {subequations}, \chead, \setstretch]; 1 missing file[jeep.sty].
162024 2013-02-26 06:45:25 /0006/math.0006211 9510000[\listfiles].
162025 2013-02-26 06:43:21 /0006/math.0006212 1820000[\@thanks, \protected@xdef].
162026 2013-02-26 06:41:41 /0006/math.0006208 160000[\dospecials, \epsffileline].
162027 2013-02-26 06:41:25 /0006/math.0006207 1680000[\tenpoint, \crthick, \noncenteredtables, \endtable, \begintable, \tableinfofalse, \crnorule]; 1 missing file[tables].
162028 2013-02-26 06:40:48 /0006/math.0006182 13120000[\dlto, \enddiagram, Align, \xyoption, \drto, \rto, \dto, \xymatrix, \diagram, \rrto, \ar]; 1 missing file[xy.sty].
162029 2013-02-26 06:40:18 /0006/math.0006156 154400000[\cM, \cA, \gotP, \MRE, \mapright, \subjclass, \cT, {coro}, \cK, \DMRI, {defi}, \gott, \xymatrix, \keywords, Align, \cf, \alttitle, {theo}, \urladdr, {lemm}, {altabstract}, \email, \cC, \eg, \cL, \captionsfrancais, \ar, {prop}, \DMRE, \gotg, \cE, {rema},
162030 2013-02-26 06:39:56 /0006/math.0006172 890000[{comment}, \setpapersize, \node, \arrow, {diagram}, \setmarginsrb]; 1 missing file[Vmargin.sty].
162031 2013-02-26 06:39:30 /0006/math.0006176 99360000[\@yarg, \tenpoint, \@picbox, \alloc@, \@linechar, \@badlinearg, \transl, \@dashbox, \@dashcnt, \eightsl, \@xarg, \@tempcntb, \@yyarg, \@tempcnta, \@multicnt, \owns, \@tempboxa, \addto].
162032 2013-02-26 06:38:26 /0006/math.0006160 1040000[Align, \xymatrix, \ar]; 1 missing file[xy.sty].
162033 2013-02-26 06:38:08 /0006/math.0006163 110000[\Bbb].
162034 2013-02-26 06:37:55 /0006/math.0006164 1180000[\theequation].
162035 2013-02-26 06:37:28 /0006/math.0006158 1610000[@ ].
162036 2013-02-26 06:37:14 /0006/math.0006146 2350000[\theappendix, \epsfbox, \epsfysize].
162037 2013-02-26 06:37:12 /0006/math.0006147 7850000[Align, \xymatrix, \ar, \CompileMatrices]; 1 missing file[xy.sty].
162038 2013-02-26 06:35:50 /0006/math.0006119 287160000[\Line, \mathbb, \AOPAMS, \BACKTONORMALFOOTNOTE, \AOPlrh, \AOPaffil, \AOPMAKETITLE, \AOPAbstract, \AOPrrh, \proof, \AOPKeywords, \AOPtitle, \AOPaddress, \NONUMBIB, \SPECFNSYMBOL, \AOPauthor]; 1 missing file[mystyle.cls].
162039 2013-02-26 06:35:37 /0006/math.0006141 710000[\arabic].
162040 2013-02-26 06:35:09 /0006/math.0006132 1660000[\setstretch]; 1 missing file[xy.sty].
162041 2013-02-26 06:34:51 /0006/math.0006113 14320000[{subequations}].
162042 2013-02-26 06:34:35 /0006/math.0006125 2710000[\adjustfootnotemark].
162043 2013-02-26 06:33:54 /0006/math.0006104 10720000[\Bbb, \frak].
162044 2013-02-26 06:33:20 /0006/math.0006114 2230000[\allinethickness, \arc, \path].
162045 2013-02-26 06:33:20 /0006/math.0006118 293160000[\Line, \mathbb, \AOPAMS, \BACKTONORMALFOOTNOTE, \AOPlrh, \AOPaffil, \AOPMAKETITLE, \AOPAbstract, \AOPrrh, \proof, \AOPKeywords, \AOPtitle, \AOPaddress, \NONUMBIB, \SPECFNSYMBOL, \AOPauthor]; 1 missing file[mystyle.cls].
162046 2013-02-26 06:33:02 /0006/math.0006103 2420000[\CITE]; 1 missing file[prbbib.sty].
162047 2013-02-26 06:32:51 /0006/math.0006127 010000[\bezier].
162048 2013-02-26 06:32:36 /0006/math.0006083 162300000[\campus, \field, \isolatedchord, \degreeyear, \IGraph, \TwistedYGraph, \HopfLink, \numberofmembers, \thechapter, \ssp, \degreesemester, \HGraph, \wiggle, \YGraph, \UGraph, {acknowledgements}, \crossing, \ThetaGraph, \smoothing, \othermembers, \prevdegree
162049 2013-02-26 06:32:25 /0006/math.0006097 25720000[\allinethickness, \path].
162050 2013-02-26 06:31:34 /0006/math.0006100 1580000[{definition}, {lemma}, {theorem}, \citenum, \endproof, {proof}, \thetheorem].
162051 2013-02-26 06:31:18 /0006/math.0006105 130000[Align, \xymatrix, \ar].
162052 2013-02-26 06:30:43 /0006/math.0006089 210000[\mathinner].
162053 2013-02-26 06:30:29 /0006/math.0006084 3610000[\eightpoint].
162054 2013-02-26 06:29:31 /0006/math.0006033 8940000[Align, \xymatrix, \ar]; 1 missing file[xy.sty].
162055 2013-02-26 06:29:06 /0006/math.0006059 15310000[\vs].
162056 2013-02-26 06:29:00 /0006/math.0006076 165170000[\Line, \subsetneq, \mathbb, \AOPAMS, \BACKTONORMALFOOTNOTE, \AOPlrh, \AOPaffil, \AOPMAKETITLE, \AOPAbstract, \AOPrrh, \proof, \AOPKeywords, \AOPtitle, \AOPaddress, \NONUMBIB, \SPECFNSYMBOL, \AOPauthor]; 1 missing file[mystyle.cls].
162057 2013-02-26 06:28:38 /0006/math.0006060 4790000[\enddiagram, Align, \lto, \dto, \rto, \diagram, \uto, \ddouble]; 1 missing file[xy.sty].
162058 2013-02-26 06:27:46 /0006/math.0006065 11280000[\affil, {theorem}, \thetheorem, {article}, \authorrunninghead, \keywords, {example}, \email, {remark}, \zerosection, {references}, {proof}, \titlerunninghead].
162059 2013-02-26 06:26:29 /0006/math.0006029 20110000[\institution].
162060 2013-02-26 06:26:08 /0006/math.0006053 1140000[\title, \date, \thanks, \author].
162061 2013-02-26 06:26:03 /0006/math.0006056 4760000[Align, \xymatrix, \ar, \CompileMatrices]; 2 missing files[afterpage.sty, xy.sty].
162062 2013-02-26 06:25:58 /0006/math.0006054 980000[Align, \txt, \xymatrix, \ar]; 1 missing file[xy.sty].
162063 2013-02-26 06:25:26 /0006/math.0006042 4320000[Align, \xymatrix, \ar]; 1 missing file[xy.sty].
162064 2013-02-26 06:23:14 /0006/math.0006034 33140000[\Vtriangle, \resetparms].
162065 2013-02-26 06:21:00 /0006/math.0006012 420000[\intop]; 1 missing file[math.0006012.auxi].
162066 2013-02-26 06:20:40 /0006/math.0006004 228790000[\alloc@, \FAM]; 1 missing file[math.0006004.aux].
162067 2013-02-26 06:19:48 /0006/math.0006002 120000[\psfig]; 1 missing file[psfig].
162068 2013-02-26 06:19:06 /0006/math-ph.0006025 420000[Align, \+].
162069 2013-02-26 06:18:20 /0006/math-ph.0006018 9620000[\hsemi, \hrist].
162070 2013-02-26 06:18:17 /0006/math-ph.0006012 0100000[\extrasenglish, \dateenglish, \captionsenglish].
162071 2013-02-26 06:15:22 /0006/math-ph.0006010 14010000[\dsum].
162072 2013-02-26 06:12:11 /0006/hep-th.0006247 2550000[\fo@t, \footsymbol]; 3 missing files[hyperbasics, harvmac.sty, hep-th.0006247.refs].
162073 2013-02-26 06:08:37 /0006/hep-th.0006224 4410000[\lTo, \diagram, \rTo, \luTo, Align, \uTo, \dTo, \enddiagram, \\]; 1 missing file[diagrams.tex].
162074 2013-02-26 06:08:37 /0006/hep-th.0006226 61100000[\ArrowArc, \Line, \Oval, \ArrowArcn, \Curve, \Text, \ArrowLine, \DashCurve, \CArc, \LongArrow].
162075 2013-02-26 06:06:42 /0006/hep-th.0006222 19810000[\@@underline].
162076 2013-02-26 06:01:14 /0006/hep-th.0006188 5410000[\curve].
162077 2013-02-26 06:00:32 /0006/hep-th.0006184 310000[\curve].
162078 2013-02-26 05:59:30 /0006/hep-th.0006178 2730000[{chart}].
162079 2013-02-26 05:58:27 /0006/hep-th.0006180 1310000[\citen].
162080 2013-02-26 05:57:53 /0006/hep-th.0006182 510000[\theappendix].
162081 2013-02-26 05:57:20 /0006/hep-th.0006171 910000[{centering}].
162082 2013-02-26 05:57:18 /0006/hep-th.0006155 7510000[\columns].
162083 2013-02-26 05:54:54 /0006/hep-th.0006113 16010000[\eqnres@t].
162084 2013-02-26 05:54:12 /0006/hep-th.0006120 2170000[\Line, \Text, \Vertex, \Photon, \CArc, \GOval, \LongArrowArc].
162085 2013-02-26 05:50:54 /0006/hep-th.0006102 2410000[\theappendix].
162086 2013-02-26 05:49:23 /0006/hep-th.0006080 31610000[{subequations}].
162087 2013-02-26 05:47:10 /0006/hep-th.0006050 2040000[Align, \xymatrix, \ar]; 1 missing file[xy.sty].
162088 2013-02-26 05:45:20 /0006/hep-th.0006039 210000[\psfrag].
162089 2013-02-26 05:45:16 /0006/hep-th.0006028 5410000[\firstfigfalse].
162090 2013-02-26 05:44:23 /0006/hep-th.0006030 134130000[\BCirc, \Line, \Curve, \Vertex, \GCirc, \Text, \SetWidth, \LongArrowArcn, \SetScale, \LongArrow, \SetOffset, \DashLine, \LongArrowArc].
162091 2013-02-26 05:44:17 /0006/hep-th.0006031 27210000[{subequations}].
162092 2013-02-26 05:42:57 /0006/hep-th.0006010 1150000[\endtable, \begintable, \psfig]; 2 missing files[tables, psfig].
162093 2013-02-26 05:42:29 /0006/hep-th.0006022 110000[{centering}].
162094 2013-02-26 05:42:06 /0006/hep-th.0006005 12340000[Align, \diagramstyle, \rdTo, \ldTo, {diagram}].
162095 2013-02-26 05:41:44 /0006/hep-th.0006009 1210000[\columns].
162096 2013-02-26 05:40:38 /0006/hep-ph.0006355 810000[\psfig].
162097 2013-02-26 05:40:32 /0006/hep-ph.0006356 3710000[\institute].
162098 2013-02-26 05:38:58 /0006/hep-ph.0006347 110000[\epsfig].
162099 2013-02-26 05:37:10 /0006/hep-ph.0006338 1150000[\Text, \Line, \SetWidth, \Photon, \SetScale].
162100 2013-02-26 05:34:56 /0006/hep-ph.0006317 8050000[\ArrowArc, \ArrowLine, \Text, \Photon, \PhotonArc].
162101 2013-02-26 05:34:17 /0006/hep-ph.0006307 3970000[\Vertex, \Text, \GCirc, \ArrowLine, \Photon, \PhotonArc, \DashLine].
162102 2013-02-26 05:32:11 /0006/hep-ph.0006300 6230000[\theappendix, \address]; 1 missing file[run2col.sty].
162103 2013-02-26 05:31:28 /0006/hep-ph.0006309 050000[\Vertex, \GCirc, \ArrowLine, \Photon, \DashLine].
162104 2013-02-26 05:31:02 /0006/hep-ph.0006294 3710000[{instit}].
162105 2013-02-26 05:30:25 /0006/hep-ph.0006298 220000[\abstracts]; 1 missing file[ws.sty].
162106 2013-02-26 05:30:08 /0006/hep-ph.0006282 1210000[\epsfig].
162107 2013-02-26 05:29:13 /0006/hep-ph.0006272 510000[\psfig].
162108 2013-02-26 05:28:35 /0006/hep-ph.0006259 6490000[\institute].
162109 2013-02-26 05:27:09 /0006/hep-ph.0006253 1480000[\GCirc, \Text, \Line, \ArrowLine, \DashCArc, \Photon, \DashArrowArcn, \DashLine].
162110 2013-02-26 05:26:37 /0006/hep-ph.0006261 3140000[\Line, \evensidemargin, \DashArrowLine, \textwidth, \oddsidemargin, \topmargin, \ArrowLine, \Text, \headsep, \SetWidth, \SetScale, \DashLine, \headheight]; 1 missing file[FEYNMAN].
162111 2013-02-26 05:26:16 /0006/hep-ph.0006244 1530000[{sideways}].
162112 2013-02-26 05:25:12 /0006/hep-ph.0006241 9090000[\Line, \Photon, \GlueArc, \BBoxc, \Vertex, \SetWidth, \CArc, \DashLine, \Gluon].
162113 2013-02-26 05:23:57 /0006/hep-ph.0006231 47190000[\citen].
162114 2013-02-26 05:22:23 /0006/hep-ph.0006196 1420000[\psfig]; 1 missing file[psfig].
162115 2013-02-26 05:22:12 /0006/hep-ph.0006197 820000[\psfig]; 1 missing file[psfig].
162116 2013-02-26 05:21:44 /0006/hep-ph.0006170 25720000[\psfig]; 1 missing file[psfig].
162117 2013-02-26 05:21:43 /0006/hep-ph.0006185 610000[\@cite].
162118 2013-02-26 05:21:37 /0006/hep-ph.0006189 11140000[\FIGURE, \conference, \heplat, \TABLE, \keywords]; 1 missing file[DUBNA.cls].
162119 2013-02-26 05:20:56 /0006/hep-ph.0006178 510000[\psfig].
162120 2013-02-26 05:20:50 /0006/hep-ph.0006164 1110000[{turn}].
162121 2013-02-26 05:19:52 /0006/hep-ph.0006153 4710000[\@title].
162122 2013-02-26 05:19:35 /0006/hep-ph.0006160 910000[\rotate].
162123 2013-02-26 05:19:10 /0006/hep-ph.0006144 21400000[\BoxedEPSF, \SetepsfEPSFSpecial, \HideDisplacementBoxes]; 1 missing file[boxedeps].
162124 2013-02-26 05:18:09 /0006/hep-ph.0006132 2020000[\PACS]; 1 missing file[size11.clo.sty].
162125 2013-02-26 05:16:53 /0006/hep-ph.0006138 1210000[\ns].
162126 2013-02-26 05:14:28 /0006/hep-ph.0006117 14130000[\psfrag].
162127 2013-02-26 05:14:03 /0006/hep-ph.0006120 1640000[\epsfig].
162128 2013-02-26 05:13:06 /0006/hep-ph.0006094 070000[\BCirc, \Line, \Text, \ArrowLine, \Photon, \Oval, \DashLine].
162129 2013-02-26 05:12:55 /0006/hep-ph.0006093 1210000[{spacing}].
162130 2013-02-26 05:12:41 /0006/hep-ph.0006095 11130000[\theappendix].
162131 2013-02-26 05:11:50 /0006/hep-ph.0006082 020000[\bigphotons]; 1 missing file[feynman].
162132 2013-02-26 05:10:21 /0006/hep-ph.0006069 310000[\firstfigfalse].
162133 2013-02-26 05:09:40 /0006/hep-ph.0006067 4020000[\psfig]; 1 missing file[psfig].
162134 2013-02-26 05:09:26 /0006/hep-ph.0006050 80530000[\absize, \!xleft, \arrow, \plot, \axis, \circulararc, \setcoordinatesystem, \visibleaxes, \stack, \startrotation, \!ybot, \setplotarea, \normalgraphs, \setplotsymbol, \stoprotation, \!picbox, \!xright, \!ytop, \setdashes, \putrule, \newlength].
162135 2013-02-26 05:08:26 /0006/hep-ph.0006045 10910000[\rotate].
162136 2013-02-26 05:07:41 /0006/hep-ph.0006044 9110000[\theappendix].
162137 2013-02-26 05:06:51 /0006/hep-ph.0006036 4480000[\Text, \Line, \DashCArc, \Photon, \CArc, \PhotonArc, \DashLine].
162138 2013-02-26 05:06:50 /0006/hep-ph.0006030 14100000[\address, \pacs, \subequations, \endsubequations, \psfig, \epsfig, \keywords].
162139 2013-02-26 05:06:41 /0006/hep-ph.0006022 115200000[\Line, \Vertex, \ArrowLine, \Gluon].
162140 2013-02-26 05:05:48 /0006/hep-ph.0006020 060000[\preprint, \address, \PACS, \psfig]; 2 missing files[psfig, appbwb.sty].
162141 2013-02-26 05:05:15 /0006/hep-ph.0006011 1620000[\psfrag, \setpapersize].
162142 2013-02-26 05:04:41 /0006/gr-qc.0006091 993130000[\lesssim, \eth, \psfig, \thechapter, \gimel, \epsfbox, \@currentID, \epsfxsize]; 2 missing files[report.sty, identfirst.sty].
162143 2013-02-26 05:04:32 /0006/hep-ph.0006016 86920000[\glb@settings, \symbold].
162144 2013-02-26 05:03:11 /0006/hep-ph.0006009 9220000[\fmffreeze, {fmffile}, \fmfblob, \fmf, \fmftop, \fmfv, \fmfdot, \fmfpen, {fmfgraph*}, \fmfleft, \fmfright].
162145 2013-02-26 05:00:17 /0006/hep-ex.0006028 18650000[\epsfclipon, \thechapter, \dsp, \@currentID, \epsffile, \epsfysize]; 1 missing file[topmassprd.sty].
162146 2013-02-26 04:59:28 /0006/hep-lat.0006006 520000[\psfig]; 1 missing file[psfig].
162147 2013-02-26 04:58:40 /0006/hep-ex.0006029 1510000[\theappendix].
162148 2013-02-26 04:58:24 /0006/hep-ex.0006018 5420000[\afterpage]; 1 missing file[afterpage.sty].
162149 2013-02-26 04:57:40 /0006/hep-ex.0006021 1310000[\epsfig].
162150 2013-02-26 04:55:16 /0006/gr-qc.0006101 730000[\address, \pacs, \keywords].
162151 2013-02-26 04:54:35 /0006/gr-qc.0006087 730000[\pacs, \email, \affiliation]; 1 missing file[revtex4b3.cls].
162152 2013-02-26 04:53:06 /0006/gr-qc.0006083 4420000[\dsum, \tag].
162153 2013-02-26 04:52:33 /0006/gr-qc.0006067 1710000[\psfrag].
162154 2013-02-26 04:50:59 /0006/gr-qc.0006047 4340000[\drawstackedtext, \drawcenteredtext, \drawpath, \drawframebox].
162155 2013-02-26 04:48:09 /0006/gr-qc.0006043 520000[\psfig]; 1 missing file[psfig].
162156 2013-02-26 04:47:50 /0006/gr-qc.0006026 0120000[\ack, \thanksref, \PACS, \sep, {frontmatter}, {keyword}].
162157 2013-02-26 04:47:48 /0006/gr-qc.0006032 19010000[\@mathmeasure].
162158 2013-02-26 04:47:26 /0006/gr-qc.0006014 710000[\bezier].
162159 2013-02-26 04:46:48 /0006/gr-qc.0006004 2710000[{centering}].
162160 2013-02-26 04:46:31 /0006/gr-qc.0006005 7100000[\agt, \address, \alt, \epsfbox, \pacs, \epsfxsize, \keywords].
162161 2013-02-26 04:46:15 /0006/cs.0006012 62370000[\copyrightnotice, {dedication}, \degreemonth, \degreeyear, {rotate}, \thechapter, {comment}, \readers, \doctorphilosophy, {vita}, \advisor, \qroof, {sideways}, \Tree, \dissertation, {sidewaysfigure}, \@currentID, \qtreecenterfalse, {frontmatter}, {acknow
162162 2013-02-26 04:46:14 /0006/cs.0006036 2040000[\shortciteA, \shortcite, \shortciteNP]; 1 missing file[myapa.sty].
162163 2013-02-26 04:45:56 /0006/cs.0006039 620000[{keywords}, \PARstart]; 1 missing file[IEEEtran.cls].
162164 2013-02-26 04:45:47 /0006/cs.0006046 210000[\Box].
162165 2013-02-26 04:45:44 /0006/cs.0006038 040000[\citename, \newcite, \And]; 1 missing file[colacl.sty].
162166 2013-02-26 04:45:40 /0006/cs.0006045 42800000[\at, \mathfig, \neqiii, \leqot, \lssot, \eqt, \xor, \neqii, \andr, \state, \notr, \forallr, \call, \diff, \neqot, \leqt]; 1 missing file[macros.sty].
162167 2013-02-26 04:45:23 /0006/cs.0006044 020000[\shortcite]; 1 missing file[colacl.sty].
162168 2013-02-26 04:45:21 /0006/cs.0006033 4340000[\email, \shortcite, {proof}, \figrule]; 1 missing file[tlp.cls].
162169 2013-02-26 04:45:06 /0006/cs.0006029 2140000[\footnote, \articletitle, \email, \normallatexbib]; 1 missing file[KapProc.cls].
162170 2013-02-26 04:44:59 /0006/cs.0006025 4220000[\institution]; 1 missing file[darpasls.sty].
162171 2013-02-26 04:44:50 /0006/cs.0006028 3130000[\Tree]; 2 missing files[qtree.sty, colacl.sty].
162172 2013-02-26 04:44:26 /0006/cs.0006034 53170000[Align, \makeatactive, {code}]; 1 missing file[code.sty].
162173 2013-02-26 04:44:07 /0006/cs.0006008 1960000[{lemma}, {keywords}, {theorem}, {corollary}, {proof}]; 1 missing file[siam.sty].
162174 2013-02-26 04:43:52 /0006/cs.0006024 2550000[\citeyear, \shortciteA, \shortcite, \shortciteNP]; 1 missing file[myapa.sty].
162175 2013-02-26 04:43:51 /0006/cs.0006023 77110000[{acknowledgments}, \affil, \namecite, \citebrackets, \runningtitle, \starttwocolumn, \issue, Align, \shortcite, \runningauthor]; 1 missing file[cl.sty].
162176 2013-02-26 04:43:38 /0006/cs.0006011 040000[{comment}, {sideways}, \Tree]; 1 missing file[qtree.sty].
162177 2013-02-26 04:43:32 /1201/1201.3748 210000[\session].
162178 2013-02-26 04:43:06 /0006/cs.0006001 130000[\extrasenglish, \dateenglish, \captionsenglish].
162179 2013-02-26 04:43:05 /0006/cs.0006003 070000[{comment}, \newcite, {table**}]; 1 missing file[colacl.sty].
162180 2013-02-26 04:43:03 /0006/cs.0006002 030000[\extrasenglish, \dateenglish, \captionsenglish].
162181 2013-02-26 04:42:50 /0006/cs.0006007 110000[\affiliation]; 1 missing file[sab.cls].
162182 2013-02-26 04:42:19 /0006/cond-mat.0006501 3120000[\twoimages, \onefigure, \stars, \twofigures, \issue, Align, \email, \rec, {largetabular}, \@affiliation, \oneimage].
162183 2013-02-26 04:42:06 /0006/cond-mat.0006486 890000[\citeauthoryear, \epsfig, \pagerange]; 1 missing file[acs.sty].
162184 2013-02-26 04:41:58 /0006/cond-mat.0006484 3680000[\affil, \appendixtitle, \email, {acknowledgment}, {article}, \authorrunninghead, \keywords, \titlerunninghead].
162185 2013-02-26 04:41:52 /0006/cond-mat.0006489 050000[\BoxedEPSF, \ForceWidth, \SetOzTeXEPSFSpecial, \HideDisplacementBoxes]; 1 missing file[BoxedEPS.tex].
162186 2013-02-26 04:41:19 /0006/cond-mat.0006482 3050000[\mib, \citet, \figureheight]; 2 missing files[subeqna.sty, jpsjbs.sty].
162187 2013-02-26 04:40:20 /0006/cond-mat.0006458 130000[\address, \runninghead]; 1 missing file[jltp.sty].
162188 2013-02-26 04:39:52 /0006/cond-mat.0006447 110000[\theappendix].
162189 2013-02-26 04:39:52 /0006/cond-mat.0006464 380000[\twofigures, \email, \rec, \@affiliation, \onefigure, \etal].
162190 2013-02-26 04:39:13 /0006/cond-mat.0006439 17110000[\lesssim, \graphicspath, \includegraphics, \DeclareGraphicsExtensions, \gtrsim, \citet, \text, {fulltable}]; 2 missing files[subeqna.sty, jpsjbs.sty].
162191 2013-02-26 04:38:31 /0006/cond-mat.0006427 2350000[\bP, \bC, \bG, \bR, \bN].
162192 2013-02-26 04:38:13 /0006/cond-mat.0006431 910000[\theappendix].
162193 2013-02-26 04:36:35 /0006/cond-mat.0006420 2420000[\psfig]; 1 missing file[psfig].
162194 2013-02-26 04:36:13 /0006/cond-mat.0006424 020000[\epsfig].
162195 2013-02-26 04:36:08 /0006/cond-mat.0006405 310000[\setlongtables].
162196 2013-02-26 04:35:32 /0006/cond-mat.0006412 1710000[\rotate].
162197 2013-02-26 04:35:17 /0006/cond-mat.0006413 060000[\euro, \pacs, \inst, \institute, \Date].
162198 2013-02-26 04:34:50 /0006/cond-mat.0006397 750000[\twoimages, \@affiliation, \onefigure].
162199 2013-02-26 04:32:27 /0006/cond-mat.0006382 6250000[\Journal, \abstracts]; 1 missing file[ws.sty].
162200 2013-02-26 04:32:24 /0006/cond-mat.0006374 250000[\topmargin, \setlength, \textheight, \oddsidemargin, \textwidth].
<<< >>>

[0] [200] [400] [600] [800] [1000] [1200] [1400] [1600] [1800] [2000] [2200] [2400] [2600] [2800] [3000] [3200] [3400] [3600] [3800] [4000] [4200] [4400] [4600] [4800] [5000] [5200] [5400] [5600] [5800] [6000] [6200] [6400] [6600] [6800] [7000] [7200] [7400] [7600] [7800] [8000] [8200] [8400] [8600] [8800] [9000] [9200] [9400] [9600] [9800] [10000] [10200] [10400] [10600] [10800] [11000] [11200] [11400] [11600] [11800] [12000] [12200] [12400] [12600] [12800] [13000] [13200] [13400] [13600] [13800] [14000] [14200] [14400] [14600] [14800] [15000] [15200] [15400] [15600] [15800] [16000] [16200] [16400] [16600] [16800] [17000] [17200] [17400] [17600] [17800] [18000] [18200] [18400] [18600] [18800] [19000] [19200] [19400] [19600] [19800] [20000] [20200] [20400] [20600] [20800] [21000] [21200] [21400] [21600] [21800] [22000] [22200] [22400] [22600] [22800] [23000] [23200] [23400] [23600] [23800] [24000] [24200] [24400] [24600] [24800] [25000] [25200] [25400] [25600] [25800] [26000] [26200] [26400] [26600] [26800] [27000] [27200] [27400] [27600] [27800] [28000] [28200] [28400] [28600] [28800] [29000] [29200] [29400] [29600] [29800] [30000] [30200] [30400] [30600] [30800] [31000] [31200] [31400] [31600] [31800] [32000] [32200] [32400] [32600] [32800] [33000] [33200] [33400] [33600] [33800] [34000] [34200] [34400] [34600] [34800] [35000] [35200] [35400] [35600] [35800] [36000] [36200] [36400] [36600] [36800] [37000] [37200] [37400] [37600] [37800] [38000] [38200] [38400] [38600] [38800] [39000] [39200] [39400] [39600] [39800] [40000] [40200] [40400] [40600] [40800] [41000] [41200] [41400] [41600] [41800] [42000] [42200] [42400] [42600] [42800] [43000] [43200] [43400] [43600] [43800] [44000] [44200] [44400] [44600] [44800] [45000] [45200] [45400] [45600] [45800] [46000] [46200] [46400] [46600] [46800] [47000] [47200] [47400] [47600] [47800] [48000] [48200] [48400] [48600] [48800] [49000] [49200] [49400] [49600] [49800] [50000] [50200] [50400] [50600] [50800] [51000] [51200] [51400] [51600] [51800] [52000] [52200] [52400] [52600] [52800] [53000] [53200] [53400] [53600] [53800] [54000] [54200] [54400] [54600] [54800] [55000] [55200] [55400] [55600] [55800] [56000] [56200] [56400] [56600] [56800] [57000] [57200] [57400] [57600] [57800] [58000] [58200] [58400] [58600] [58800] [59000] [59200] [59400] [59600] [59800] [60000] [60200] [60400] [60600] [60800] [61000] [61200] [61400] [61600] [61800] [62000] [62200] [62400] [62600] [62800] [63000] [63200] [63400] [63600] [63800] [64000] [64200] [64400] [64600] [64800] [65000] [65200] [65400] [65600] [65800] [66000] [66200] [66400] [66600] [66800] [67000] [67200] [67400] [67600] [67800] [68000] [68200] [68400] [68600] [68800] [69000] [69200] [69400] [69600] [69800] [70000] [70200] [70400] [70600] [70800] [71000] [71200] [71400] [71600] [71800] [72000] [72200] [72400] [72600] [72800] [73000] [73200] [73400] [73600] [73800] [74000] [74200] [74400] [74600] [74800] [75000] [75200] [75400] [75600] [75800] [76000] [76200] [76400] [76600] [76800] [77000] [77200] [77400] [77600] [77800] [78000] [78200] [78400] [78600] [78800] [79000] [79200] [79400] [79600] [79800] [80000] [80200] [80400] [80600] [80800] [81000] [81200] [81400] [81600] [81800] [82000] [82200] [82400] [82600] [82800] [83000] [83200] [83400] [83600] [83800] [84000] [84200] [84400] [84600] [84800] [85000] [85200] [85400] [85600] [85800] [86000] [86200] [86400] [86600] [86800] [87000] [87200] [87400] [87600] [87800] [88000] [88200] [88400] [88600] [88800] [89000] [89200] [89400] [89600] [89800] [90000] [90200] [90400] [90600] [90800] [91000] [91200] [91400] [91600] [91800] [92000] [92200] [92400] [92600] [92800] [93000] [93200] [93400] [93600] [93800] [94000] [94200] [94400] [94600] [94800] [95000] [95200] [95400] [95600] [95800] [96000] [96200] [96400] [96600] [96800] [97000] [97200] [97400] [97600] [97800] [98000] [98200] [98400] [98600] [98800] [99000] [99200] [99400] [99600] [99800] [100000] [100200] [100400] [100600] [100800] [101000] [101200] [101400] [101600] [101800] [102000] [102200] [102400] [102600] [102800] [103000] [103200] [103400] [103600] [103800] [104000] [104200] [104400] [104600] [104800] [105000] [105200] [105400] [105600] [105800] [106000] [106200] [106400] [106600] [106800] [107000] [107200] [107400] [107600] [107800] [108000] [108200] [108400] [108600] [108800] [109000] [109200] [109400] [109600] [109800] [110000] [110200] [110400] [110600] [110800] [111000] [111200] [111400] [111600] [111800] [112000] [112200] [112400] [112600] [112800] [113000] [113200] [113400] [113600] [113800] [114000] [114200] [114400] [114600] [114800] [115000] [115200] [115400] [115600] [115800] [116000] [116200] [116400] [116600] [116800] [117000] [117200] [117400] [117600] [117800] [118000] [118200] [118400] [118600] [118800] [119000] [119200] [119400] [119600] [119800] [120000] [120200] [120400] [120600] [120800] [121000] [121200] [121400] [121600] [121800] [122000] [122200] [122400] [122600] [122800] [123000] [123200] [123400] [123600] [123800] [124000] [124200] [124400] [124600] [124800] [125000] [125200] [125400] [125600] [125800] [126000] [126200] [126400] [126600] [126800] [127000] [127200] [127400] [127600] [127800] [128000] [128200] [128400] [128600] [128800] [129000] [129200] [129400] [129600] [129800] [130000] [130200] [130400] [130600] [130800] [131000] [131200] [131400] [131600] [131800] [132000] [132200] [132400] [132600] [132800] [133000] [133200] [133400] [133600] [133800] [134000] [134200] [134400] [134600] [134800] [135000] [135200] [135400] [135600] [135800] [136000] [136200] [136400] [136600] [136800] [137000] [137200] [137400] [137600] [137800] [138000] [138200] [138400] [138600] [138800] [139000] [139200] [139400] [139600] [139800] [140000] [140200] [140400] [140600] [140800] [141000] [141200] [141400] [141600] [141800] [142000] [142200] [142400] [142600] [142800] [143000] [143200] [143400] [143600] [143800] [144000] [144200] [144400] [144600] [144800] [145000] [145200] [145400] [145600] [145800] [146000] [146200] [146400] [146600] [146800] [147000] [147200] [147400] [147600] [147800] [148000] [148200] [148400] [148600] [148800] [149000] [149200] [149400] [149600] [149800] [150000] [150200] [150400] [150600] [150800] [151000] [151200] [151400] [151600] [151800] [152000] [152200] [152400] [152600] [152800] [153000] [153200] [153400] [153600] [153800] [154000] [154200] [154400] [154600] [154800] [155000] [155200] [155400] [155600] [155800] [156000] [156200] [156400] [156600] [156800] [157000] [157200] [157400] [157600] [157800] [158000] [158200] [158400] [158600] [158800] [159000] [159200] [159400] [159600] [159800] [160000] [160200] [160400] [160600] [160800] [161000] [161200] [161400] [161600] [161800] [162000] [162200] [162400] [162600] [162800] [163000] [163200] [163400] [163600] [163800] [164000] [164200] [164400] [164600]
 
  The service has been written by
Heinrich Stamerjohanns